Regional Weather Roundup
Issued by NWS

Home | Current Version | Previous Version | Graphics & Text | Print | Product List | Glossary On
Versions: 1 2 3 4 5 6 7 8 9 10 11 12 13 14 15 16 17 18 19 20 21 22 23 24 25 26 27 28 29 30 31 32 33 34 35 36 37 38 39 40 41 42 43 44 45 46 47 48 49 50
000
ASUS43 KLOT 080208
RWRIL

ILLINOIS REGIONAL WEATHER ROUNDUP
NATIONAL WEATHER SERVICE CHICAGO/ROMEOVILLE IL
900 PM CDT TUE JUL 07 2015

NOTE: "FAIR" INDICATES FEW OR NO CLOUDS BELOW 12,000 FEET WITH NO
SIGNIFICANT WEATHER AND/OR OBSTRUCTIONS TO VISIBILITY.

* THESE STATIONS ARE NOT UNDER NWS QUALITY CONTROL. THEY ALSO MAY NOT
  REPORT WEATHER SUCH AS PRECIPITATION OR FOG.

ILZ001-002-007-009-015-016-024-080300-
NORTHWEST ILLINOIS

CITY           SKY/WX    TMP DP  RH WIND       PRES   REMARKS
MOLINE         MOCLDY    68  54  60 CALM      30.06R
STERLING*      CLOUDY    66  55  68 N3        30.07R
SAVANNA*       MOCLDY    63  53  69 N5        30.07S
$$

ILZ003-004-008-010-011-017-018-080300-
NORTH CENTRAL ILLINOIS

CITY           SKY/WX    TMP DP  RH WIND       PRES   REMARKS
ROCKFORD       MOCLDY    64  50  60 NE8       30.09R
FREEPORT*      PTCLDY    59  54  81 N5        30.10S
ROCHELLE*      CLOUDY    62  55  76 E8        30.08R
DE KALB*       PTCLDY    56  50  81 E6        30.09R
PERU*          MOCLDY    63  55  74 NE8       30.07R
$$

ILZ005-006-012>014-019>023-080300-
NORTHEAST ILLINOIS

CITY           SKY/WX    TMP DP  RH WIND       PRES   REMARKS
CHICAGO-OHARE  PTCLDY    58  45  62 NE9       30.08S
CHICAGO-MIDWAY MOCLDY    61  45  55 N13       30.08R
AURORA         PTCLDY    60  49  66 NE6       30.08R
LANSING*       CLEAR     59  46  63 N6        30.08R
JOLIET*        PTCLDY    60  50  69 NE5       30.09R
WAUKEGAN       CLEAR     54  49  83 CALM      30.08F
DUPAGE AIRPORT CLEAR     58  47  66 NE9       30.08R
KANKAKEE*      MOCLDY    59  51  73 N7        30.08R
WHEELING       CLEAR     57  46  66 N6        30.10S
MORRIS*        PTCLDY    60  51  73 E5        30.06R
ROMEOVILLE*    PTCLDY    59  48  67 NE7       30.08R
NORTHERLY ISL    N/A     58  48  69 N9          N/A
$$

LMZ740>746-080300-
SOUTHERN LAKE MICHIGAN

STATION/POSITION SKY/WX   TEMP    WIND        PRES    VSBY  WAVE
                          AIR SEA DIR/SP/G                  HT/PER
                          (F)     (DEG/KT/KT) (MB)    (MI)  (FT/S)
HARRISON CRIB              58     360/ 14/ 16   N/A
BURNHAM HARBOR             58      10/  6/ 15   N/A
CALUMET HARBOR             60     350/ 11/ 16   N/A
BURNS HARBOR               62      20/ 19/ 24 1018.3R
MICHIGAN CITY              62     350/ 26/ 31   N/A
MICHIGAN CITY 6N           62 65   20/ 17/ 23   N/A           7/ 7
ST. JOSEPH                 61 61   50/ 19/ 23   N/A           7/ 2
$$

ILZ025>027-034>036-040-047-049-050-058-095>099-080300-
WEST-CENTRAL ILLINOIS

CITY           SKY/WX    TMP DP  RH WIND       PRES   REMARKS
QUINCY         MOCLDY    69  63  81 E3        30.04S HAZE
GALESBURG*     MOCLDY    61  58  88 NE5       30.06S
MACOMB*        CLOUDY    66  63  89 N3        30.07S FOG
JACKSONVILLE*  MOCLDY    68  63  84 NE3       30.05R
PITTSFIELD*    MOCLDY    67  62  83 CALM      30.05S
$$

ILZ028>032-037-038-041>044-048-051>054-059>061-080300-
CENTRAL ILLINOIS

CITY           SKY/WX    TMP DP  RH WIND       PRES   REMARKS
PONTIAC        MOCLDY    62  53  72 E10       30.08R
BLOOMINGTON    MOCLDY    62  57  83 E6        30.07R
DECATUR        MOCLDY    64  55  72 NE7       30.05R
PEORIA         MOCLDY    66  59  78 CALM      30.05R HAZE
LACON*         MOCLDY    63  57  82 NE3       30.05R
LINCOLN*       MOCLDY    66  59  78 CALM      30.05S
SPRINGFIELD    MOCLDY    69  60  73 NE5       30.05R
TAYLORVILLE    CLOUDY    64  55  72 E9        30.05R
$$

ILZ033-039-045-046-055>057-062-063-080300-
EAST-CENTRAL ILLINOIS

CITY           SKY/WX    TMP DP  RH WIND       PRES   REMARKS
CHAMPAIGN      PTCLDY    62  53  72 NE7       30.05S
DANVILLE*      PTCLDY    58  53  82 N6        30.03S
RANTOUL*       PTCLDY    64  54  71 NE7       30.06R
MATTOON        CLOUDY    65  55  70 NE9       30.04R
PARIS*         CLOUDY    64  54  69 N6        30.05S
$$

ILZ079-100>102-080300-
SOUTHWEST ILLINOIS

CITY           SKY/WX    TMP DP  RH WIND       PRES   REMARKS
ALTON          CLOUDY    66 N/A N/A NE6       30.04R
BELLEVILLE     CLOUDY    66  65  99 E5        30.03R
CAHOKIA*       CLOUDY    66  63  90 NE7       30.04R
SPARTA*        CLOUDY    67  64  89 N6        30.04R
$$

ILZ064>066-069>071-074>076-080>082-084>086-088>090-092>094-080300-
SOUTH-CENTRAL ILLINOIS

CITY           SKY/WX    TMP DP  RH WIND       PRES   REMARKS
CARBONDALE     LGT RAIN  72  70  93 NW3       30.01R FOG
CAIRO*         CLOUDY    73  71  96 SW9       30.02R
EFFINGHAM*     CLOUDY    65  59  81 CALM      30.06R
MARION         CLOUDY    73  72  94 N3        30.02R FOG
MT. VERNON     CLOUDY    66  61  82 NE7       30.03R
CENTRALIA*     CLOUDY    66  60  81 NE8       30.03R
SALEM*         CLOUDY    67  61  79 NE7       30.03S
$$

ILZ067-068-072-073-078-083-087-091-080300-
SOUTHEAST ILLINOIS

CITY           SKY/WX    TMP DP  RH WIND       PRES   REMARKS
LAWRENCEVILLE  CLOUDY    67  65  93 N9        30.03R
FLORA*         CLOUDY    65  61  85 NE7       30.04R
FAIRFIELD*     CLOUDY    67  64  91 N6        30.02R
HARRISBURG*    RAIN      71  71 100 NE10      30.01R
ROBINSON*      CLOUDY    66  60  83 NE8       30.04R
CARMI*         CLOUDY    70  64  83 N7        30.01R
$$

ABBREVIATIONS USED IN REMARKS
   TC - TEMPERATURE IN CELSIUS
  WCI - WIND CHILL INDEX
   HX - HEAT INDEX
  VSB - VISIBILITY
$$



USA.gov is the U.S. government's official web portal to all federal, state and local government web resources and services.